User: anonymous   Login
Location: Caltech
(34.1382°N, 118.1253°W)
Time: 05:26:28
(UTC-08:00)
Language:

Meteor 1-11 Rocket - Orbit

View from above orbital plane
View from above orbital plane
View from above satellite
View from above satellite

Ground track
Ground track

The orbit data is extracted from the following two-line orbital elements,

1 05918U 72022B   14354.92739125  .00000390  00000-0  22812-3 0  3276
2 05918 081.2381 125.4317 0058292 002.3865 134.9187 14.05740091190241
Epoch (UTC): 20 December 2014 22:15:26
Eccentricity: 0.0058292
inclination: 81.2381°
perigee height: 832 km
apogee height: 916 km
right ascension of ascending node: 125.4317°
argument of perigee: 2.3865°
revolutions per day: 14.05740091
mean anomaly at epoch: 134.9187°
orbit number at epoch: 19024

The dashed part of the orbit path shows where the satellite is in the earth's shadow,  

DLR